DW2633 Weather Reports


time (UTC)temp
C
wind
direction
speed
KPH
gust
KPH
rain 1hr
cm
rain 24hr
cm
rain mn
cm
humidity
%
barometer
mb
20260905000019 21 302 17.7 0.0 0.00 0.00 0.00 71 1009.6
20260904235519 21 306 19.3 0.0 0.00 0.00 0.00 70 1009.6
20260904235021 22 299 17.7 0.0 0.00 0.00 0.00 70 1009.5
20260904234521 22 302 17.7 0.0 0.00 0.00 0.00 71 1009.7
20260904234019 22 303 14.5 0.0 0.00 0.00 0.00 70 1009.7
20260904233518 22 322 11.3 0.0 0.00 0.00 0.00 75 1009.5
20260904233018 22 317 11.3 0.0 0.00 0.00 0.00 73 1009.4
20260904232518 22 317 11.3 0.0 0.00 0.00 0.00 73 1009.4
20260904232017 22 327 12.9 0.0 0.00 0.00 0.00 73 1009.4
20260904231518 22 321 12.9 0.0 0.00 0.00 0.00 71 1009.4
20260904231017 22 319 14.5 0.0 0.00 0.00 0.00 70 1009.2
20260904230517 22 309 14.5 0.0 0.00 0.00 0.00 71 1009.3
20260904230029 22 317 11.3 0.0 0.00 0.00 0.00 73 1009.3
20260904225516 22 314 9.7 0.0 0.00 0.00 0.00 73 1009.3
20260904225017 22 315 9.7 0.0 0.00 0.00 0.00 72 1009.1
20260904224525 22 318 11.3 0.0 0.00 0.00 0.00 73 1009.2
20260904224017 22 325 11.3 0.0 0.00 0.00 0.00 72 1009.2
20260904223520 22 336 12.9 0.0 0.00 0.00 0.00 69 1009.2
20260904223016 22 337 12.9 0.0 0.00 0.00 0.00 69 1009.0
20260904222520 22 324 12.9 0.0 0.00 0.00 0.00 67 1008.9
20260904222016 22 324 11.3 0.0 0.00 0.00 0.00 67 1009.0
20260904221522 23 325 11.3 0.0 0.00 0.00 0.00 70 1008.9
20260904221016 23 319 11.3 0.0 0.00 0.00 0.00 69 1008.9
20260904220515 23 324 12.9 0.0 0.00 0.00 0.00 68 1008.8
20260904220015 23 310 14.5 0.0 0.00 0.00 0.00 68 1008.7
20260904215514 23 319 16.1 0.0 0.00 0.00 0.00 68 1008.8
20260904215015 23 329 14.5 0.0 0.00 0.00 0.00 64 1008.9
20260904214520 23 323 14.5 0.0 0.00 0.00 0.00 66 1008.8
20260904214015 23 305 16.1 0.0 0.00 0.00 0.00 66 1008.7
20260904213515 23 304 14.5 0.0 0.00 0.00 0.00 67 1008.6
20260904213017 23 300 14.5 0.0 0.00 0.00 0.00 68 1008.7
20260904212515 23 306 17.7 0.0 0.00 0.00 0.00 66 1008.6
20260904212014 24 291 19.3 0.0 0.00 0.00 0.00 70 1008.7
20260904211514 24 289 19.3 0.0 0.00 0.00 0.00 69 1008.6
20260904211013 24 289 22.5 0.0 0.00 0.00 0.00 67 1008.7
20260904210513 24 287 24.1 0.0 0.00 0.00 0.00 64 1008.9
20260904210012 24 285 22.5 0.0 0.00 0.00 0.00 66 1008.9
20260904205512 24 291 22.5 0.0 0.00 0.00 0.00 63 1008.9
20260904205010 24 302 25.7 0.0 0.00 0.00 0.00 61 1009.0
20260904204512 24 297 24.1 0.0 0.00 0.00 0.00 61 1009.0
20260904204011 24 286 22.5 0.0 0.00 0.00 0.00 65 1009.0
20260904203510 24 295 24.1 0.0 0.00 0.00 0.00 63 1009.1
20260904203010 24 297 25.7 0.0 0.00 0.00 0.00 62 1009.1
20260904202509 24 294 25.7 0.0 0.00 0.00 0.00 62 1009.0
20260904202008 24 302 22.5 0.0 0.00 0.00 0.00 61 1009.0
20260904201508 24 291 22.5 0.0 0.00 0.00 0.00 63 1009.0
20260904201009 24 300 20.9 0.0 0.00 0.00 0.00 63 1009.0
20260904200508 24 296 17.7 0.0 0.00 0.00 0.00 62 1008.9
20260904200010 24 319 16.1 0.0 0.00 0.00 0.00 62 1008.9
20260904195509 24 320 16.1 0.0 0.00 0.00 0.00 61 1009.0
20260904195008 25 312 14.5 0.0 0.00 0.00 0.00 62 1009.0
20260904194508 25 340 14.5 0.0 0.00 0.00 0.00 62 1009.0
20260904194008 24 324 17.7 0.0 0.00 0.00 0.00 61 1009.0
20260904193508 24 330 17.7 0.0 0.00 0.00 0.00 61 1008.9
20260904193014 24 334 17.7 0.0 0.00 0.00 0.00 63 1008.9
20260904192506 24 320 19.3 0.0 0.00 0.00 0.00 63 1008.9
20260904192005 24 314 19.3 0.0 0.00 0.00 0.00 62 1008.9
20260904191505 24 306 19.3 0.0 0.00 0.00 0.00 57 1009.2
20260904191004 24 299 16.1 0.0 0.00 0.00 0.00 63 1009.2
20260904190503 24 303 14.5 0.0 0.00 0.00 0.00 64 1009.2
20260904190002 24 312 16.1 0.0 0.00 0.00 0.00 63 1009.2
20260904185502 24 315 17.7 0.0 0.00 0.00 0.00 62 1009.2
20260904185002 24 309 17.7 0.0 0.00 0.00 0.00 64 1009.3
20260904184502 24 315 16.1 0.0 0.00 0.00 0.00 64 1009.4
20260904184002 24 319 14.5 0.0 0.00 0.00 0.00 62 1009.6
20260904183601 24 319 16.1 0.0 0.00 0.00 0.00 62 1009.6
20260904183114 24 324 16.1 0.0 0.00 0.00 0.00 65 1009.7
20260904182600 24 331 17.7 0.0 0.00 0.00 0.00 62 1009.8
20260904182100 25 327 16.1 0.0 0.00 0.00 0.00 64 1009.7
20260904181602 25 317 14.5 0.0 0.00 0.00 0.00 65 1009.8
20260904181059 25 331 14.5 0.0 0.00 0.00 0.00 62 1009.9
20260904180601 25 327 14.5 0.0 0.00 0.00 0.00 69 1009.9
20260904175556 24 296 14.5 0.0 0.00 0.00 0.00 67 1009.9
20260904175055 24 292 14.5 0.0 0.00 0.00 0.00 65 1009.9
20260904174555 24 299 14.5 0.0 0.00 0.00 0.00 68 1009.8
20260904174055 23 298 14.5 0.0 0.00 0.00 0.00 63 1009.9
20260904173553 23 294 14.5 0.0 0.00 0.00 0.00 64 1009.9
20260904173053 23 315 17.7 0.0 0.00 0.00 0.00 63 1010.0
20260904172553 23 326 17.7 0.0 0.00 0.00 0.00 67 1010.0
20260904172054 23 319 16.1 0.0 0.00 0.00 0.00 67 1010.0
20260904171554 23 322 16.1 0.0 0.00 0.00 0.00 65 1010.0
20260904171053 23 313 12.9 0.0 0.00 0.00 0.00 61 1010.0
20260904170552 23 314 9.7 0.0 0.00 0.00 0.00 61 1010.0
20260904170053 23 299 8.0 0.0 0.00 0.00 0.00 62 1010.0
20260904165550 23 294 6.4 0.0 0.00 0.00 0.00 63 1010.0
20260904165049 23 309 3.2 0.0 0.00 0.00 0.00 65 1009.9
20260904164548 23 275 3.2 0.0 0.00 0.00 0.00 69 1009.8
20260904164047 23 275 3.2 0.0 0.00 0.00 0.00 68 1009.9
20260904163546 23 9 3.2 0.0 0.00 0.00 0.00 68 1010.0
20260904163051 22 9 4.8 0.0 0.00 0.00 0.00 66 1010.0
20260904162546 22 355 6.4 0.0 0.00 0.00 0.00 67 1010.0
20260904162046 22 11 8.0 0.0 0.00 0.00 0.00 67 1010.1
20260904161546 22 342 8.0 0.0 0.00 0.00 0.00 67 1010.3
20260904161044 22 337 4.8 0.0 0.00 0.00 0.00 68 1010.4
20260904160543 22 331 1.6 0.0 0.00 0.00 0.00 70 1010.5
20260904160043 22 339 0.0 0.0 0.00 0.00 0.00 72 1010.5
20260904155542 22 338 3.2 0.0 0.00 0.00 0.00 73 1010.5
20260904155045 22 310 3.2 0.0 0.00 0.00 0.00 74 1010.5
20260904154540 22 309 4.8 0.0 0.00 0.00 0.00 74 1010.7
20260904154039 22 329 3.2 0.0 0.00 0.00 0.00 72 1010.8
20260904153537 21 202 0.0 0.0 0.00 0.00 0.00 78 1010.8
20260904153048 21 253 1.6 0.0 0.00 0.00 0.00 75 1010.8
20260904152535 21 253 1.6 0.0 0.00 0.00 0.00 80 1010.7
20260904152034 21 252 0.0 0.0 0.00 0.00 0.00 77 1010.8
20260904151534 21 252 3.2 0.0 0.00 0.00 0.00 77 1010.8
20260904151034 21 252 4.8 0.0 0.00 0.00 0.00 84 1011.0
20260904150535 21 264 3.2 0.0 0.00 0.00 0.00 82 1011.3
20260904150031 20 280 3.2 0.0 0.00 0.00 0.00 82 1011.3
20260904145531 20 279 3.2 0.0 0.00 0.00 0.00 83 1011.1
20260904145030 20 279 4.8 0.0 0.00 0.00 0.00 82 1011.1
20260904144531 20 279 4.8 0.0 0.00 0.00 0.00 83 1011.1
20260904144027 20 279 3.2 0.0 0.00 0.00 0.00 84 1011.2
20260904143526 20 265 3.2 0.0 0.00 0.00 0.00 85 1011.2
20260904143025 20 265 3.2 0.0 0.00 0.00 0.00 85 1011.2
20260904142524 19 264 3.2 0.0 0.00 0.00 0.00 86 1011.3
20260904142024 19 264 4.8 0.0 0.00 0.00 0.00 87 1011.2
20260904141523 19 262 4.8 0.0 0.00 0.00 0.00 87 1011.1
20260904141021 19 274 4.8 0.0 0.00 0.00 0.00 87 1011.1
20260904140520 18 319 3.2 0.0 0.00 0.00 0.00 89 1011.0
20260904140020 18 311 1.6 0.0 0.00 0.00 0.00 88 1011.0
20260904135519 18 311 1.6 0.0 0.00 0.00 0.00 87 1011.0
20260904135019 18 312 1.6 0.0 0.00 0.00 0.00 88 1011.0
20260904134522 18 312 1.6 0.0 0.00 0.00 0.00 88 1010.9
20260904134017 18 312 3.2 0.0 0.00 0.00 0.00 88 1010.9
20260904133516 18 312 4.8 0.0 0.00 0.00 0.00 88 1011.0
20260904133016 18 311 4.8 0.0 0.00 0.00 0.00 88 1011.1
20260904132517 18 314 3.2 0.0 0.00 0.00 0.00 89 1011.0
20260904132015 18 338 3.2 0.0 0.00 0.00 0.00 90 1010.8
20260904131515 18 338 3.2 0.0 0.00 0.00 0.00 91 1010.9
20260904131015 18 350 1.6 0.0 0.00 0.00 0.00 91 1010.9
20260904130515 18 351 1.6 0.0 0.00 0.00 0.00 91 1011.0
20260904130032 17 351 4.8 0.0 0.00 0.00 0.00 92 1011.1
20260904125513 17 351 4.8 0.0 0.00 0.00 0.00 94 1011.1
20260904125013 17 5 6.4 0.0 0.00 0.00 0.00 97 1011.0
20260904124510 17 360 4.8 0.0 0.00 0.00 0.00 97 1011.2
20260904124008 16 355 1.6 0.0 0.00 0.00 0.00 97 1011.2
20260904123509 16 115 0.0 0.0 0.00 0.00 0.00 97 1011.0
20260904123016 16 115 0.0 0.0 0.00 0.00 0.00 97 1011.1
20260904122508 16 115 0.0 0.0 0.00 0.00 0.00 97 1011.1
20260904122008 16 115 0.0 0.0 0.00 0.00 0.00 97 1011.1
20260904121507 16 115 1.6 0.0 0.00 0.00 0.00 97 1011.1
20260904121007 15 115 3.2 0.0 0.00 0.00 0.00 97 1011.1
20260904120511 15 115 3.2 0.0 0.00 0.00 0.00 97 1011.1
20260904120008 15 94 1.6 0.0 0.00 0.00 0.00 97 1011.1
20260904115507 15 130 1.6 0.0 0.00 0.00 0.00 97 1011.1
20260904115009 14 130 1.6 0.0 0.00 0.00 0.00 97 1011.2
20260904114506 14 133 1.6 0.0 0.00 0.00 0.00 97 1011.1
20260904114008 14 133 1.6 0.0 0.00 0.00 0.00 96 1011.0
20260904113505 13 133 3.2 0.0 0.00 0.00 0.00 96 1011.0
20260904113005 13 133 3.2 0.0 0.00 0.00 0.00 96 1011.0
20260904112504 13 133 3.2 0.0 0.00 0.00 0.00 96 1011.0
20260904112002 13 133 3.2 0.0 0.00 0.00 0.00 96 1010.9
20260904111502 13 133 4.8 0.0 0.00 0.00 0.00 96 1010.7
20260904111003 13 133 4.8 0.0 0.00 0.00 0.00 96 1010.7
20260904110502 13 133 6.4 0.0 0.00 0.00 0.00 96 1010.7
20260904110002 13 133 6.4 0.0 0.00 0.00 0.00 96 1010.7
20260904105500 13 134 4.8 0.0 0.00 0.00 0.00 95 1010.7
20260904105002 13 134 4.8 0.0 0.00 0.00 0.00 95 1010.6
20260904104601 13 134 4.8 0.0 0.00 0.00 0.00 95 1010.5
20260904104101 13 135 6.4 0.0 0.00 0.00 0.00 95 1010.5
20260904103559 13 130 4.8 0.0 0.00 0.00 0.00 95 1010.5
20260904103059 13 132 4.8 0.0 0.00 0.00 0.00 95 1010.4
20260904102602 13 131 4.8 0.0 0.00 0.00 0.00 95 1010.3
20260904102059 13 131 6.4 0.0 0.00 0.00 0.00 95 1010.2
20260904101603 13 130 6.4 0.0 0.00 0.00 0.00 95 1010.1
20260904101058 13 130 6.4 0.0 0.00 0.00 0.00 95 1010.0
20260904100558 13 130 6.4 0.0 0.00 0.00 0.00 95 1010.0
20260904100057 13 130 6.4 0.0 0.00 0.00 0.00 95 1010.0
20260904095556 13 134 6.4 0.0 0.00 0.00 0.00 95 1009.9
20260904095057 13 134 6.4 0.0 0.00 0.00 0.00 95 1009.9
20260904094556 13 132 6.4 0.0 0.00 0.00 0.00 95 1009.9
20260904094057 13 128 4.8 0.0 0.00 0.00 0.00 95 1009.9
20260904093555 13 142 4.8 0.0 0.00 0.00 0.00 95 1009.9
20260904093055 13 144 6.4 0.0 0.00 0.00 0.00 95 1009.9
20260904092557 13 144 4.8 0.0 0.00 0.00 0.00 94 1009.8
20260904092055 13 132 4.8 0.0 0.00 0.00 0.00 95 1009.8
20260904091555 13 132 4.8 0.0 0.00 0.00 0.00 95 1009.8
20260904091057 13 132 6.4 0.0 0.00 0.00 0.00 95 1009.8
20260904090552 13 136 4.8 0.0 0.00 0.00 0.00 95 1009.8
20260904090054 13 136 4.8 0.0 0.00 0.00 0.00 94 1009.7
20260904085552 13 137 6.4 0.0 0.00 0.00 0.00 94 1009.4
20260904085052 14 137 6.4 0.0 0.00 0.00 0.00 94 1009.5
20260904084552 14 132 6.4 0.0 0.00 0.00 0.00 94 1009.6
20260904084050 14 134 6.4 0.0 0.00 0.00 0.00 95 1009.6
20260904083550 14 134 6.4 0.0 0.00 0.00 0.00 95 1009.6
20260904083052 14 134 6.4 0.0 0.00 0.00 0.00 95 1009.6
20260904082549 14 134 6.4 0.0 0.00 0.00 0.00 95 1009.6
20260904082050 14 136 6.4 0.0 0.00 0.00 0.00 95 1009.4
20260904081554 14 133 4.8 0.0 0.00 0.00 0.00 95 1009.5
20260904081048 14 133 4.8 0.0 0.00 0.00 0.00 95 1009.5
20260904080549 14 133 6.4 0.0 0.00 0.00 0.00 95 1009.5
20260904080048 14 133 4.8 0.0 0.00 0.00 0.00 95 1009.4
20260904075548 14 131 4.8 0.0 0.00 0.00 0.00 95 1009.4
20260904075047 14 131 4.8 0.0 0.00 0.00 0.00 95 1009.5
20260904074547 15 132 4.8 0.0 0.00 0.00 0.00 95 1009.5
20260904074047 15 130 6.4 0.0 0.00 0.00 0.00 95 1009.6
20260904073549 15 129 6.4 0.0 0.00 0.00 0.00 95 1009.5
20260904073046 15 133 4.8 0.0 0.00 0.00 0.00 94 1009.4
20260904072545 15 134 6.4 0.0 0.00 0.00 0.00 94 1009.4
20260904072044 15 126 6.4 0.0 0.00 0.00 0.00 94 1009.4
20260904071544 15 125 6.4 0.0 0.00 0.00 0.00 94 1009.5
20260904071044 15 143 4.8 0.0 0.00 0.00 0.00 94 1009.6
20260904070544 15 144 4.8 0.0 0.00 0.00 0.00 94 1009.7
20260904070043 15 146 4.8 0.0 0.00 0.00 0.00 94 1009.8
20260904065542 15 137 4.8 0.0 0.00 0.00 0.00 94 1009.9
20260904065042 15 130 4.8 0.0 0.00 0.00 0.00 94 1009.7
20260904064542 15 130 4.8 0.0 0.00 0.00 0.00 94 1009.8
20260904064042 15 134 6.4 0.0 0.00 0.00 0.00 94 1009.6
20260904063544 15 135 4.8 0.0 0.00 0.00 0.00 94 1009.6
20260904063043 15 136 4.8 0.0 0.00 0.00 0.00 94 1009.6
20260904062540 15 137 4.8 0.0 0.00 0.00 0.00 94 1009.8
20260904062039 15 130 6.4 0.0 0.00 0.00 0.00 94 1009.7
20260904061544 15 123 8.0 0.0 0.00 0.00 0.00 94 1009.7
20260904061037 15 143 8.0 0.0 0.00 0.00 0.00 94 1009.8
20260904060539 15 130 8.0 0.0 0.00 0.00 0.00 94 1009.8
20260904060037 15 133 6.4 0.0 0.00 0.00 0.00 94 1009.8
20260904055537 15 130 6.4 0.0 0.00 0.00 0.00 94 1009.9
20260904055035 15 133 4.8 0.0 0.00 0.00 0.00 94 1010.0
20260904054538 15 151 3.2 0.0 0.00 0.00 0.00 94 1009.9
20260904054035 16 151 1.6 0.0 0.00 0.00 0.00 94 1009.9
20260904053536 16 152 1.6 0.0 0.00 0.00 0.00 94 1009.9
20260904053035 16 152 3.2 0.0 0.00 0.00 0.00 94 1009.9
20260904052534 16 152 4.8 0.0 0.00 0.00 0.00 94 1009.9
20260904052034 16 152 4.8 0.0 0.00 0.00 0.00 94 1009.9
20260904051535 16 132 4.8 0.0 0.00 0.00 0.00 94 1009.9
20260904051032 16 128 6.4 0.0 0.00 0.00 0.00 94 1009.9
20260904050533 16 128 4.8 0.0 0.00 0.00 0.00 94 1010.0
20260904050031 16 128 3.2 0.0 0.00 0.00 0.00 94 1010.1
20260904045531 16 129 4.8 0.0 0.00 0.00 0.00 93 1010.2
20260904045031 16 130 6.4 0.0 0.00 0.00 0.00 93 1010.3
20260904044542 16 130 6.4 0.0 0.00 0.00 0.00 94 1010.4
20260904044029 16 132 4.8 0.0 0.00 0.00 0.00 93 1010.4
20260904043529 16 134 1.6 0.0 0.00 0.00 0.00 93 1010.5
20260904043035 16 132 0.0 0.0 0.00 0.00 0.00 93 1010.5
20260904042531 16 134 0.0 0.0 0.00 0.00 0.00 93 1010.5
20260904042028 16 134 3.2 0.0 0.00 0.00 0.00 93 1010.6
20260904041527 16 134 3.2 0.0 0.00 0.00 0.00 93 1010.5
20260904041026 16 132 3.2 0.0 0.00 0.00 0.00 93 1010.5
20260904040525 16 131 6.4 0.0 0.00 0.00 0.00 93 1010.4
20260904040025 16 130 6.4 0.0 0.00 0.00 0.00 93 1010.5
20260904035523 17 134 4.8 0.0 0.00 0.00 0.00 93 1010.5
20260904035024 17 145 4.8 0.0 0.00 0.00 0.00 93 1010.4
20260904034523 17 145 1.6 0.0 0.00 0.00 0.00 93 1010.5
20260904034024 17 145 1.6 0.0 0.00 0.00 0.00 92 1010.6
20260904033523 17 140 4.8 0.0 0.00 0.00 0.00 92 1010.6
20260904033023 17 133 6.4 0.0 0.00 0.00 0.00 92 1010.6
20260904032522 17 132 6.4 0.0 0.00 0.00 0.00 93 1010.6
20260904032022 17 134 4.8 0.0 0.00 0.00 0.00 93 1010.6
20260904031522 17 132 3.2 0.0 0.00 0.00 0.00 92 1010.5
20260904031023 17 148 3.2 0.0 0.00 0.00 0.00 92 1010.4
20260904030522 17 148 6.4 0.0 0.00 0.00 0.00 92 1010.4
20260904030023 17 126 6.4 0.0 0.00 0.00 0.00 92 1010.5
20260904025522 17 134 6.4 0.0 0.00 0.00 0.00 92 1010.6
20260904025024 17 136 6.4 0.0 0.00 0.00 0.00 92 1010.6
20260904024522 17 126 6.4 0.0 0.00 0.00 0.00 92 1010.7
20260904024023 17 132 4.8 0.0 0.00 0.00 0.00 92 1010.8
20260904023521 17 142 4.8 0.0 0.00 0.00 0.00 92 1010.9
20260904023021 18 132 6.4 0.0 0.00 0.00 0.00 92 1010.8
20260904022521 18 132 4.8 0.0 0.00 0.00 0.00 92 1010.9
20260904022021 18 134 3.2 0.0 0.00 0.00 0.00 92 1010.9
20260904021525 18 134 4.8 0.0 0.00 0.00 0.00 91 1011.0
20260904021023 18 132 4.8 0.0 0.00 0.00 0.00 92 1011.0
20260904020521 18 132 6.4 0.0 0.00 0.00 0.00 91 1010.9
20260904020021 18 131 6.4 0.0 0.00 0.00 0.00 92 1011.0
20260904015520 18 128 6.4 0.0 0.00 0.00 0.00 91 1011.0
20260904015020 18 135 6.4 0.0 0.00 0.00 0.00 91 1010.9
20260904014520 18 129 4.8 0.0 0.00 0.00 0.00 91 1010.9
20260904014020 18 138 4.8 0.0 0.00 0.00 0.00 91 1011.0
20260904013519 18 137 6.4 0.0 0.00 0.00 0.00 91 1011.0
20260904013020 18 121 8.0 0.0 0.00 0.00 0.00 91 1011.1
20260904012519 18 132 6.4 0.0 0.00 0.00 0.00 91 1011.1
20260904012019 18 136 3.2 0.0 0.00 0.00 0.00 91 1011.2
20260904011520 18 136 1.6 0.0 0.00 0.00 0.00 90 1011.1
20260904011019 19 136 4.8 0.0 0.00 0.00 0.00 90 1011.1
20260904010519 19 136 4.8 0.0 0.00 0.00 0.00 90 1011.1
20260904010020 19 137 4.8 0.0 0.00 0.00 0.00 90 1011.0
20260904005518 19 139 3.2 0.0 0.00 0.00 0.00 89 1011.1
20260904005018 19 141 1.6 0.0 0.00 0.00 0.00 89 1011.0
20260904004518 19 141 1.6 0.0 0.00 0.00 0.00 89 1011.0
20260904004018 20 141 3.2 0.0 0.00 0.00 0.00 89 1010.8
20260904003520 20 141 3.2 0.0 0.00 0.00 0.00 89 1010.8
20260904003017 20 140 3.2 0.0 0.00 0.00 0.00 89 1010.8
20260904002520 20 140 4.8 0.0 0.00 0.00 0.00 88 1010.8
20260904002017 20 140 4.8 0.0 0.00 0.00 0.00 88 1011.0
20260904001516 20 141 4.8 0.0 0.00 0.00 0.00 88 1010.7
20260904001016 20 142 3.2 0.0 0.00 0.00 0.00 87 1010.7
20260904000516 20 142 4.8 0.0 0.00 0.00 0.00 88 1010.5